This is the latest recevied weather packets stored in our database for station/object W1ERB-13. If no packets are shown the sender has not sent any weather packets the latest 10 day(s).
| Time | Temp. | Humidity | Pressure | Rain* | Wind** | Luminosity | Snow |
|---|---|---|---|---|---|---|---|
| 1778205327 | 7.78° C | 71% | 1009.3 hPa | 0 mm | - | 0 W/m² | - |
| 1778205024 | 8.33° C | 70% | 1009 hPa | 0 mm | - | 0 W/m² | - |
| 1778204721 | 8.33° C | 69% | 1009 hPa | 0 mm | - | 0 W/m² | - |
| 1778204416 | 8.89° C | 66% | 1009 hPa | 0 mm | - | 0 W/m² | - |
| 1778204113 | 8.89° C | 66% | 1009 hPa | 0 mm | - | 0 W/m² | - |
| 1778203810 | 8.89° C | 63% | 1008.9 hPa | 0 mm | - | 0 W/m² | - |
| 1778203507 | 9.44° C | 61% | 1008.8 hPa | 0 mm | - | 0 W/m² | - |
| 1778203204 | 9.44° C | 61% | 1008.9 hPa | 0 mm | - | 0 W/m² | - |
| 1778202903 | 9.44° C | 60% | 1009 hPa | 0 mm | - | 0 W/m² | - |
| 1778202600 | 9.44° C | 60% | 1008.8 hPa | 0 mm | - | 0 W/m² | - |
| 1778202297 | 10° C | 57% | 1009 hPa | 0 mm | - | 0 W/m² | - |
| 1778201994 | 10° C | 57% | 1008.7 hPa | 0 mm | - | 0 W/m² | - |
| 1778201690 | 10° C | 57% | 1008.9 hPa | 0 mm | - | 0 W/m² | - |
| 1778201387 | 10.56° C | 56% | 1008.7 hPa | 0 mm | - | 0 W/m² | - |
| 1778201083 | 10.56° C | 55% | 1008.6 hPa | 0 mm | - | 0 W/m² | - |
| 1778200780 | 10.56° C | 53% | 1008.5 hPa | 0 mm | - | 0 W/m² | - |
| 1778200477 | 11.11° C | 51% | 1008.3 hPa | 0 mm | - | 0 W/m² | - |
| 1778200174 | 11.11° C | 51% | 1008.3 hPa | 0 mm | - | 0 W/m² | - |
| 1778199871 | 11.67° C | 51% | 1007.9 hPa | 0 mm | - | 0 W/m² | - |
| 1778199566 | 11.67° C | 50% | 1008.2 hPa | 0 mm | - | 0 W/m² | - |
| 1778199263 | 11.67° C | 47% | 1008 hPa | 0 mm | - | 0 W/m² | - |
| 1778198959 | 12.22° C | 46% | 1008 hPa | 0 mm | - | 0 W/m² | - |
| 1778198655 | 12.78° C | 45% | 1007.7 hPa | 0 mm | - | 0 W/m² | - |
| 1778198352 | 12.78° C | 46% | 1007.9 hPa | 0 mm | - | 0 W/m² | - |
| 1778198050 | 12.78° C | 45% | 1007.8 hPa | 0 mm | - | 1 W/m² | - |
* Rain latest hour (hover to see other rain measurements)
** Current wind speed in m/s (hover to see current wind gust speed)